Weather in Davydovka

Russia / Voronezh Oblast     51°09′35″N   39°25′20″E
temp.,
°C
wind,
m/s
gust,
m/s
humid.,
%
clouds,
%
prec.,
mm/h
press.,
hPa
HPBL,
m
14 june, mon
mon1400:00+16sse23885 0.0 101125
03:00+15sse22905 0.0 101117
06:00+17ese22860 0.0 101274
09:00+22ese22735 0.4 1013340
12:00+25ene225739 0.9 10131311
15:00+25ene325697 1.3 10131478
18:00+24ne236767 0.1 1013915
21:00+19ne228656 0.9 101314
15 june, tue
tue1500:00+17ne229136 0.0 101324
03:00+17ne229374 0.3 101316
06:00+18ne239258 0.0 1013124
09:00+21ne3479100 0.0 1013613
12:00+24nne4465100 0.1 10111375
15:00+25ne5565100 0.5 10111262
18:00+23ene3374100 0.1 1010663
21:00+19e129092 1.6 101012
16 june, wed
wed1600:00+18nne009080 0.0 101011
03:00+17wnw229292 0.0 101011
06:00+19w1289100 0.0 101084
09:00+22wnw2277100 0.0 1011491
12:00+25wnw2265100 0.0 10111112
15:00+26nw336020 1.0 10111380
18:00+25nnw367451 1.1 1012437
21:00+19nne410945 1.4 1014237
17 june, thu
thu1700:00+18n41196100 0.0 1015261
03:00+16ne41293100 0.0 1016335
06:00+16nne612903 0.0 1017417
09:00+20ne710690 0.0 1018701
12:00+22ne78590 0.0 10201216
15:00+23ne78550 0.0 10201519
18:00+21ne610630 0.0 10201137
21:00+16ne510820 0.0 1022232
18 june, fri
fri1800:00+14ne411890 0.0 1023201
03:00+13ne410890 0.0 1024195
06:00+14ne410820 0.0 1025318
09:00+19ene69620 0.0 1025787
12:00+22ene67530 0.0 10261532
15:00+23ene57520 0.0 10251713
18:00+22ene47630 0.0 10251221
21:00+16ene34800 0.0 102654